Location: Trebic
(49.2170°N, 15.8830°E)
Time: 22:21:16
(UTC+02:00)

Transit 4A - Pass Details

Date: 31 August 2019
Orbit: 866 x 978 km, 66.8° (Epoch: 13 October)

Event Time Altitude Azimuth Distance (km) Brightness Sun altitude
Rises 23:10:06 0° 320° (NW) 3,658 12.2 -27.7°
Reaches altitude 10° 23:13:18 10° 335° (NNW) 2,694 11.3 -28.0°
Maximum altitude 23:18:09 23° 26° (NNE) 1,907 9.8 -28.4°
Enters shadow 23:21:52 14° 69° (ENE) 2,373 9.9 -28.7°
Drops below altitude 10° 23:22:54 10° 77° (ENE) 2,629 - -28.7°
Sets 23:25:58 0° 92° (E) 3,549 - -29.0°
